sat.trackr.live / text

‹ back to catalog

STARLINK-34238

NORAD 65415 · 2025-192M

PAYLOAD ACTIVE UNKNOWN

§ Identity

Operator
Country
US
Launch date
2025-08-31
Launch site
AFETR
Launch vehicle
Mass (kg)
RCS (m²)

Purposes: comms

External: N2YO · Heavens-Above · Gunter

§ Orbital elements

Epoch: 2026-05-24T17:41:29.566464Z

Period
94.11 min
Inclination
53.1582°
Eccentricity
0.0001069
Mean motion
15.30199809 rev/d
Perigee alt
474.5 km
Apogee alt
475.9 km
Semi-major
6,853.4 km
B*
8.7772e-4
RAAN
239.3831°
Arg perigee
82.1003°
Mean anomaly
278.0119°
Rev number
4,102

§ Raw data

STARLINK-342381 65415U 25192M   26144.73714776  .00025726  00000+0  87772-3 0  99942 65415  53.1582 239.3831 0001069  82.1003 278.0119 15.30199809 41026

JSON: /api/v1/satellites/65415 · /tle

For live sub-satellite position, see the globe view (requires WebGL).

§ Visibility from observer

Set your observer location to see the next 7 days of passes ≥ 10°. The values pass through the URL so the page stays shareable.

No JS? Fill the form by hand. The geolocation button needs JavaScript.